GW5240 Weather Reports


time (UTC)temp
C
wind
direction
speed
KPH
gust
KPH
rain 1hr
cm
rain 24hr
cm
rain mn
cm
humidity
%
barometer
mb
20260902000511 27 175 0.0 0.0 0.00 0.00 0.00 55 1013.5
20260902000005 27 202 0.0 3.2 0.00 0.00 0.00 56 1013.3
20260901235500 27 172 0.0 0.0 0.00 0.00 0.00 55 1013.3
20260901234955 27 157 3.2 4.8 0.00 0.00 0.00 56 1013.4
20260901234449 27 163 0.0 0.0 0.00 0.00 0.00 56 1013.5
20260901233944 27 168 0.0 0.0 0.00 0.00 0.00 57 1013.4
20260901233439 28 157 0.0 3.2 0.00 0.00 0.00 57 1013.4
20260901232936 28 166 0.0 0.0 0.00 0.00 0.00 58 1013.4
20260901232435 28 252 3.2 3.2 0.00 0.00 0.00 58 1013.3
20260901231931 28 202 0.0 0.0 0.00 0.00 0.00 57 1013.4
20260901231427 28 169 0.0 0.0 0.00 0.00 0.00 57 1013.5
20260901230924 28 167 0.0 0.0 0.00 0.00 0.00 55 1013.6
20260901230423 28 170 0.0 0.0 0.00 0.00 0.00 54 1013.3
20260901225919 28 172 0.0 0.0 0.00 0.00 0.00 55 1013.5
20260901225418 28 151 0.0 0.0 0.00 0.00 0.00 54 1013.6
20260901224913 28 169 0.0 0.0 0.00 0.00 0.00 55 1013.2
20260901224410 28 162 0.0 0.0 0.00 0.00 0.00 52 1012.9
20260901223906 28 156 3.2 4.8 0.00 0.00 0.00 51 1013.4
20260901223400 29 175 0.0 0.0 0.00 0.00 0.00 53 1013.4
20260901222856 29 171 0.0 3.2 0.00 0.00 0.00 51 1013.4
20260901222353 30 174 0.0 3.2 0.00 0.00 0.00 51 1013.4
20260901221848 30 101 1.6 3.2 0.00 0.00 0.00 52 1013.3
20260901221344 30 177 0.0 3.2 0.00 0.00 0.00 52 1013.4
20260901220843 30 179 0.0 0.0 0.00 0.00 0.00 51 1013.3
20260901220342 29 164 0.0 0.0 0.00 0.00 0.00 50 1013.3
20260901215841 29 339 0.0 3.2 0.00 0.00 0.00 50 1013.4
20260901215340 29 152 0.0 3.2 0.00 0.00 0.00 51 1013.3
20260901214839 30 185 0.0 0.0 0.00 0.00 0.00 50 1013.2
20260901214338 30 177 0.0 3.2 0.00 0.00 0.00 49 1013.2
20260901213833 30 167 0.0 0.0 0.00 0.00 0.00 49 1013.2
20260901213333 30 124 3.2 3.2 0.00 0.00 0.00 45 1013.4
20260901212827 30 191 0.0 0.0 0.00 0.00 0.00 46 1013.2
20260901212323 30 172 0.0 0.0 0.00 0.00 0.00 46 1013.4
20260901211819 30 194 1.6 3.2 0.00 0.00 0.00 47 1013.2
20260901211315 30 169 0.0 0.0 0.00 0.00 0.00 48 1013.2
20260901210810 30 167 0.0 0.0 0.00 0.00 0.00 46 1013.1
20260901210306 30 171 0.0 0.0 0.00 0.00 0.00 44 1012.9
20260901205802 30 171 0.0 0.0 0.00 0.00 0.00 42 1012.9
20260901205306 30 318 0.0 3.2 0.00 0.00 0.00 45 1012.8
20260901204757 31 175 0.0 0.0 0.00 0.00 0.00 44 1013.2
20260901204253 31 171 0.0 0.0 0.00 0.00 0.00 45 1013.2
20260901203754 31 172 1.6 3.2 0.00 0.00 0.00 41 1013.4
20260901203248 32 176 1.6 3.2 0.00 0.00 0.00 38 1013.6
20260901202747 32 172 0.0 0.0 0.00 0.00 0.00 39 1013.6
20260901202243 33 169 0.0 0.0 0.00 0.00 0.00 39 1013.6
20260901201739 33 176 0.0 0.0 0.00 0.00 0.00 40 1013.7
20260901201232 33 218 0.0 3.2 0.00 0.00 0.00 40 1013.6
20260901200732 32 172 0.0 3.2 0.00 0.00 0.00 44 1013.6
20260901200227 31 205 1.6 3.2 0.00 0.00 0.00 43 1013.4
20260901195725 31 161 3.2 3.2 0.00 0.00 0.00 43 1013.7
20260901195219 31 184 0.0 3.2 0.00 0.00 0.00 44 1013.6
20260901194715 31 120 0.0 3.2 0.00 0.00 0.00 44 1013.9
20260901194210 31 168 0.0 0.0 0.00 0.00 0.00 43 1013.8
20260901193707 31 172 0.0 3.2 0.00 0.00 0.00 40 1013.6
20260901193201 31 172 0.0 0.0 0.00 0.00 0.00 42 1013.8
20260901192700 31 163 0.0 0.0 0.00 0.00 0.00 44 1013.7
20260901192155 32 177 0.0 0.0 0.00 0.00 0.00 41 1013.7
20260901191651 31 156 0.0 0.0 0.00 0.00 0.00 43 1013.9
20260901191142 31 194 4.8 4.8 0.00 0.00 0.00 38 1013.8
20260901190638 31 166 0.0 0.0 0.00 0.00 0.00 41 1013.8
20260901190137 31 168 0.0 0.0 0.00 0.00 0.00 43 1013.8
20260901185636 32 179 0.0 0.0 0.00 0.00 0.00 39 1013.8
20260901185134 32 160 0.0 3.2 0.00 0.00 0.00 38 1013.9
20260901184630 32 179 3.2 3.2 0.00 0.00 0.00 39 1013.7
20260901184125 32 174 3.2 3.2 0.00 0.00 0.00 40 1013.7
20260901183620 32 195 1.6 3.2 0.00 0.00 0.00 41 1014.0
20260901183115 32 84 3.2 4.8 0.00 0.00 0.00 40 1014.1
20260901182612 31 194 1.6 3.2 0.00 0.00 0.00 42 1014.0
20260901182111 31 170 3.2 3.2 0.00 0.00 0.00 42 1014.1
20260901181610 31 217 0.0 0.0 0.00 0.00 0.00 43 1014.1
20260901181109 31 157 1.6 3.2 0.00 0.00 0.00 44 1014.3
20260901180604 31 189 0.0 3.2 0.00 0.00 0.00 46 1014.2
20260901180058 31 181 1.6 3.2 0.00 0.00 0.00 45 1014.4
20260901175551 31 188 0.0 3.2 0.00 0.00 0.00 47 1014.6
20260901175046 31 6 4.8 4.8 0.00 0.00 0.00 45 1014.7
20260901174542 30 171 1.6 3.2 0.00 0.00 0.00 47 1014.6
20260901174038 31 185 0.0 0.0 0.00 0.00 0.00 45 1014.6
20260901173532 30 172 0.0 0.0 0.00 0.00 0.00 46 1014.7
20260901173028 30 190 3.2 3.2 0.00 0.00 0.00 46 1014.8
20260901172524 31 358 8.0 8.0 0.00 0.00 0.00 43 1014.7
20260901172022 31 180 1.6 3.2 0.00 0.00 0.00 43 1014.7
20260901171521 31 117 3.2 3.2 0.00 0.00 0.00 45 1014.8
20260901171020 31 269 1.6 3.2 0.00 0.00 0.00 45 1014.8
20260901170515 30 168 0.0 0.0 0.00 0.00 0.00 47 1014.9
20260901170015 30 145 0.0 3.2 0.00 0.00 0.00 46 1014.9
20260901165509 30 139 1.6 3.2 0.00 0.00 0.00 46 1014.9
20260901165005 31 117 4.8 4.8 0.00 0.00 0.00 45 1014.9
20260901164500 30 173 0.0 0.0 0.00 0.00 0.00 47 1015.0
20260901164000 31 17 4.8 4.8 0.00 0.00 0.00 43 1014.9
20260901163455 30 198 3.2 4.8 0.00 0.00 0.00 46 1015.0
20260901162954 30 162 0.0 3.2 0.00 0.00 0.00 46 1014.9
20260901162449 30 91 3.2 3.2 0.00 0.00 0.00 46 1014.9
20260901161949 30 309 4.8 8.0 0.00 0.00 0.00 46 1014.9
20260901161448 30 160 0.0 3.2 0.00 0.00 0.00 51 1014.7
20260901160943 29 144 3.2 4.8 0.00 0.00 0.00 50 1014.9
20260901160439 29 193 3.2 3.2 0.00 0.00 0.00 50 1014.7
20260901155938 28 186 1.6 3.2 0.00 0.00 0.00 52 1014.5
20260901155432 28 182 3.2 3.2 0.00 0.00 0.00 57 1014.8
20260901154929 28 189 0.0 3.2 0.00 0.00 0.00 54 1014.8
20260901154428 28 206 0.0 3.2 0.00 0.00 0.00 61 1014.9
20260901153923 27 151 0.0 0.0 0.00 0.00 0.00 58 1014.6
20260901153418 27 128 1.6 3.2 0.00 0.00 0.00 59 1014.7
20260901152918 27 24 4.8 4.8 0.00 0.00 0.00 59 1014.7
20260901152412 27 152 3.2 3.2 0.00 0.00 0.00 61 1014.9
20260901151907 27 154 0.0 0.0 0.00 0.00 0.00 59 1014.9
20260901151406 27 151 0.0 3.2 0.00 0.00 0.00 61 1014.8
20260901150906 26 176 0.0 0.0 0.00 0.00 0.00 63 1014.8
20260901150404 26 147 0.0 0.0 0.00 0.00 0.00 64 1014.9
20260901145901 26 162 0.0 0.0 0.00 0.00 0.00 65 1015.2
20260901145356 25 166 0.0 0.0 0.00 0.00 0.00 66 1015.1
20260901144851 25 130 1.6 3.2 0.00 0.00 0.00 67 1015.1
20260901144347 25 161 4.8 4.8 0.00 0.00 0.00 69 1015.1
20260901143842 23 170 1.6 3.2 0.00 0.00 0.00 73 1015.1
20260901143338 23 169 1.6 3.2 0.00 0.00 0.00 73 1015.3
20260901142835 23 180 0.0 0.0 0.00 0.00 0.00 75 1015.2
20260901142333 23 160 0.0 0.0 0.00 0.00 0.00 77 1015.3
20260901141834 22 155 0.0 3.2 0.00 0.00 0.00 78 1015.4
20260901141329 22 156 3.2 4.8 0.00 0.00 0.00 80 1015.2
20260901140828 22 359 0.0 0.0 0.00 0.00 0.00 82 1015.2
20260901140326 21 170 0.0 0.0 0.00 0.00 0.00 86 1015.2
20260901135821 21 167 0.0 3.2 0.00 0.00 0.00 88 1015.3
20260901135316 20 157 1.6 3.2 0.00 0.00 0.00 92 1015.3
20260901134813 20 197 0.0 3.2 0.00 0.00 0.00 94 1015.3
20260901134312 20 164 0.0 0.0 0.00 0.00 0.00 96 1015.2
20260901133807 20 169 0.0 0.0 0.00 0.00 0.00 96 1015.3
20260901133306 19 169 0.0 0.0 0.00 0.00 0.00 97 1015.3
20260901132804 19 167 0.0 0.0 0.00 0.00 0.00 98 1015.4
20260901132300 19 170 0.0 0.0 0.00 0.00 0.00 98 1015.3
20260901131754 19 168 0.0 0.0 0.00 0.00 0.00 98 1015.3
20260901131254 19 163 0.0 0.0 0.00 0.00 0.00 98 1015.1
20260901130749 18 158 0.0 0.0 0.00 0.00 0.00 98 1015.1
20260901130248 18 165 0.0 0.0 0.00 0.00 0.00 98 1014.9
20260901125746 18 165 0.0 0.0 0.00 0.00 0.00 98 1015.1
20260901125241 18 165 0.0 0.0 0.00 0.00 0.00 98 1015.0
20260901124742 18 165 0.0 0.0 0.00 0.00 0.00 98 1015.1
20260901124236 18 165 0.0 0.0 0.00 0.00 0.00 98 1015.0
20260901123736 17 165 0.0 0.0 0.00 0.00 0.00 98 1015.2
20260901123231 17 165 0.0 0.0 0.00 0.00 0.00 98 1015.3
20260901122730 17 164 0.0 0.0 0.00 0.00 0.00 98 1015.2
20260901122225 17 163 0.0 0.0 0.00 0.00 0.00 98 1015.1
20260901121719 17 163 0.0 0.0 0.00 0.00 0.00 98 1015.0
20260901121214 17 163 0.0 0.0 0.00 0.00 0.00 98 1014.9
20260901120714 17 163 0.0 0.0 0.00 0.00 0.00 98 1014.8
20260901120209 17 163 0.0 0.0 0.00 0.00 0.00 98 1014.8
20260901115704 17 161 0.0 0.0 0.00 0.00 0.00 98 1014.7
20260901115200 17 160 0.0 0.0 0.00 0.00 0.00 98 1014.8
20260901114657 17 163 0.0 0.0 0.00 0.00 0.00 98 1014.7
20260901114156 17 163 0.0 0.0 0.00 0.00 0.00 98 1014.6
20260901113650 17 163 0.0 0.0 0.00 0.00 0.00 98 1014.6
20260901113145 17 163 0.0 0.0 0.00 0.00 0.00 98 1014.3
20260901112644 17 161 0.0 0.0 0.00 0.00 0.00 98 1014.4
20260901112138 17 170 0.0 0.0 0.00 0.00 0.00 98 1014.3
20260901111638 17 170 0.0 0.0 0.00 0.00 0.00 98 1014.3
20260901111132 17 170 0.0 0.0 0.00 0.00 0.00 98 1014.2
20260901110627 17 169 0.0 0.0 0.00 0.00 0.00 98 1014.1
20260901110122 17 169 0.0 0.0 0.00 0.00 0.00 97 1014.0
20260901105619 17 169 0.0 0.0 0.00 0.00 0.00 97 1014.2
20260901105118 17 169 0.0 0.0 0.00 0.00 0.00 97 1014.0
20260901104614 17 169 0.0 0.0 0.00 0.00 0.00 97 1014.0
20260901104108 17 167 0.0 0.0 0.00 0.00 0.00 97 1013.8
20260901103603 17 167 0.0 0.0 0.00 0.00 0.00 97 1013.8
20260901103058 17 167 0.0 0.0 0.00 0.00 0.00 97 1013.8
20260901102553 17 167 0.0 0.0 0.00 0.00 0.00 97 1013.8
20260901102048 17 167 0.0 0.0 0.00 0.00 0.00 97 1013.8
20260901101544 17 167 0.0 0.0 0.00 0.00 0.00 97 1013.8
20260901101042 17 167 0.0 0.0 0.00 0.00 0.00 97 1013.8
20260901100537 17 167 0.0 0.0 0.00 0.00 0.00 97 1013.8
20260901100037 17 167 0.0 0.0 0.00 0.00 0.00 97 1013.8
20260901095535 17 167 0.0 0.0 0.00 0.00 0.00 97 1013.8
20260901095033 17 167 0.0 0.0 0.00 0.00 0.00 97 1013.8
20260901094528 17 167 0.0 0.0 0.00 0.00 0.00 97 1013.7
20260901094027 17 167 0.0 0.0 0.00 0.00 0.00 97 1013.9
20260901093522 17 167 0.0 0.0 0.00 0.00 0.00 97 1013.7
20260901093017 17 167 0.0 0.0 0.00 0.00 0.00 97 1013.8
20260901092513 17 167 0.0 0.0 0.00 0.00 0.00 97 1013.9
20260901092009 17 167 0.0 0.0 0.00 0.00 0.00 97 1013.7
20260901091504 17 168 0.0 0.0 0.00 0.00 0.00 97 1013.7
20260901091003 17 168 0.0 0.0 0.00 0.00 0.00 97 1013.7
20260901090458 17 168 0.0 0.0 0.00 0.00 0.00 97 1013.6
20260901085953 17 168 0.0 0.0 0.00 0.00 0.00 97 1013.7
20260901085449 17 168 0.0 0.0 0.00 0.00 0.00 97 1013.7
20260901084945 17 168 0.0 0.0 0.00 0.00 0.00 96 1013.9
20260901084441 17 168 0.0 0.0 0.00 0.00 0.00 96 1013.8
20260901083937 17 168 0.0 0.0 0.00 0.00 0.00 97 1013.7
20260901083437 17 168 0.0 0.0 0.00 0.00 0.00 96 1013.5
20260901082935 17 168 0.0 0.0 0.00 0.00 0.00 96 1013.6
20260901082430 17 168 0.0 0.0 0.00 0.00 0.00 96 1013.5
20260901081925 17 168 0.0 0.0 0.00 0.00 0.00 96 1013.6
20260901081420 17 168 0.0 0.0 0.00 0.00 0.00 96 1013.7
20260901080915 18 168 0.0 0.0 0.00 0.00 0.00 96 1013.6
20260901080409 17 168 0.0 0.0 0.00 0.00 0.00 96 1013.8
20260901075903 17 168 0.0 0.0 0.00 0.00 0.00 96 1013.7
20260901075359 17 168 0.0 0.0 0.00 0.00 0.00 96 1013.8
20260901074853 18 168 0.0 0.0 0.00 0.00 0.00 96 1013.8
20260901074354 18 168 0.0 0.0 0.00 0.00 0.00 96 1014.0
20260901073849 18 168 0.0 0.0 0.00 0.00 0.00 96 1013.8
20260901073345 18 168 0.0 0.0 0.00 0.00 0.00 95 1013.8
20260901072840 18 168 0.0 0.0 0.00 0.00 0.00 95 1013.8
20260901072340 18 168 0.0 0.0 0.00 0.00 0.00 95 1013.9
20260901071835 18 168 0.0 0.0 0.00 0.00 0.00 95 1014.0
20260901071334 18 168 0.0 0.0 0.00 0.00 0.00 95 1014.0
20260901070833 18 168 0.0 0.0 0.00 0.00 0.00 95 1014.2
20260901070329 18 168 0.0 0.0 0.00 0.00 0.00 95 1013.9
20260901065827 18 168 0.0 0.0 0.00 0.00 0.00 95 1014.0
20260901065323 18 168 0.0 0.0 0.00 0.00 0.00 95 1014.1
20260901064819 18 168 0.0 0.0 0.00 0.00 0.00 95 1014.3
20260901064314 18 165 0.0 0.0 0.00 0.00 0.00 95 1014.3
20260901063812 18 165 0.0 0.0 0.00 0.00 0.00 94 1014.5
20260901063308 18 165 0.0 0.0 0.00 0.00 0.00 94 1014.3
20260901062804 18 165 0.0 0.0 0.00 0.00 0.00 94 1014.4
20260901062259 18 165 0.0 0.0 0.00 0.00 0.00 94 1014.3
20260901061755 19 165 0.0 0.0 0.00 0.00 0.00 94 1014.2
20260901061255 19 165 0.0 0.0 0.00 0.00 0.00 93 1014.2
20260901060750 19 165 0.0 0.0 0.00 0.00 0.00 93 1014.0
20260901060245 19 165 0.0 0.0 0.00 0.00 0.00 93 1014.1
20260901055741 19 165 0.0 0.0 0.00 0.00 0.00 92 1014.1
20260901055237 19 165 0.0 0.0 0.00 0.00 0.00 92 1013.9
20260901054734 19 165 0.0 0.0 0.00 0.00 0.00 92 1014.3
20260901054230 19 165 0.0 0.0 0.00 0.00 0.00 92 1014.0
20260901053726 20 165 0.0 0.0 0.00 0.00 0.00 91 1014.0
20260901053221 20 165 0.0 0.0 0.00 0.00 0.00 91 1013.9
20260901052722 20 165 0.0 0.0 0.00 0.00 0.00 90 1013.9
20260901052217 20 165 0.0 0.0 0.00 0.00 0.00 91 1013.8
20260901051716 20 165 0.0 0.0 0.00 0.00 0.00 90 1013.7
20260901051211 20 165 0.0 0.0 0.00 0.00 0.00 90 1013.8
20260901050707 20 165 0.0 0.0 0.00 0.00 0.00 90 1013.6
20260901050207 20 165 0.0 0.0 0.00 0.00 0.00 90 1013.7
20260901045701 20 165 0.0 0.0 0.00 0.00 0.00 89 1013.6
20260901045156 20 165 0.0 0.0 0.00 0.00 0.00 89 1013.5
20260901044652 20 165 0.0 0.0 0.00 0.00 0.00 89 1013.4
20260901044148 20 165 0.0 0.0 0.00 0.00 0.00 89 1013.3
20260901043643 20 165 0.0 0.0 0.00 0.00 0.00 89 1013.2
20260901043139 20 165 0.0 0.0 0.00 0.00 0.00 89 1013.2
20260901042638 20 165 0.0 0.0 0.00 0.00 0.00 89 1013.3
20260901042133 20 165 0.0 0.0 0.00 0.00 0.00 88 1013.3
20260901041629 20 165 0.0 0.0 0.00 0.00 0.00 87 1013.2
20260901041124 20 165 0.0 0.0 0.00 0.00 0.00 87 1013.4
20260901040624 20 165 0.0 0.0 0.00 0.00 0.00 86 1013.4
20260901040118 21 165 0.0 0.0 0.00 0.00 0.00 85 1013.3
20260901035616 21 165 0.0 0.0 0.00 0.00 0.00 85 1013.4
20260901035115 21 165 0.0 0.0 0.00 0.00 0.00 84 1013.5
20260901034614 21 165 0.0 0.0 0.00 0.00 0.00 84 1013.4
20260901034109 21 164 0.0 0.0 0.00 0.00 0.00 84 1013.5
20260901033608 21 164 0.0 0.0 0.00 0.00 0.00 83 1013.4
20260901033103 21 164 0.0 0.0 0.00 0.00 0.00 82 1013.5
20260901032601 22 164 0.0 0.0 0.00 0.00 0.00 81 1013.4
20260901032056 22 164 0.0 0.0 0.00 0.00 0.00 80 1013.4
20260901031552 22 164 0.0 0.0 0.00 0.00 0.00 80 1013.2
20260901031048 22 165 0.0 0.0 0.00 0.00 0.00 80 1013.2
20260901030548 22 165 0.0 0.0 0.00 0.00 0.00 80 1013.3
20260901030043 22 166 0.0 0.0 0.00 0.00 0.00 80 1013.4
20260901025542 22 166 0.0 0.0 0.00 0.00 0.00 79 1013.4
20260901025042 22 163 0.0 0.0 0.00 0.00 0.00 79 1013.2
20260901024537 22 168 0.0 0.0 0.00 0.00 0.00 78 1013.2
20260901024036 22 168 0.0 0.0 0.00 0.00 0.00 78 1013.1
20260901023535 22 168 0.0 0.0 0.00 0.00 0.00 77 1013.2
20260901023031 22 168 0.0 0.0 0.00 0.00 0.00 76 1012.9
20260901022526 23 168 0.0 0.0 0.00 0.00 0.00 76 1013.1
20260901022026 23 169 0.0 0.0 0.00 0.00 0.00 75 1012.8
20260901021522 23 169 0.0 0.0 0.00 0.00 0.00 75 1012.7
20260901021017 23 170 0.0 0.0 0.00 0.00 0.00 74 1012.9
20260901020513 23 170 0.0 0.0 0.00 0.00 0.00 73 1012.9
20260901020008 23 171 0.0 0.0 0.00 0.00 0.00 72 1012.8
20260901015503 24 167 0.0 0.0 0.00 0.00 0.00 70 1012.8
20260901015002 25 167 0.0 0.0 0.00 0.00 0.00 69 1012.7
20260901014458 25 167 0.0 0.0 0.00 0.00 0.00 68 1012.7
20260901013954 25 171 0.0 0.0 0.00 0.00 0.00 67 1012.6
20260901013450 25 165 0.0 0.0 0.00 0.00 0.00 67 1012.6
20260901012945 25 181 0.0 3.2 0.00 0.00 0.00 66 1012.4
20260901012439 25 171 0.0 0.0 0.00 0.00 0.00 65 1012.3
20260901011934 25 173 0.0 0.0 0.00 0.00 0.00 64 1012.3
20260901011431 25 170 0.0 0.0 0.00 0.00 0.00 63 1012.3
20260901010928 26 172 0.0 0.0 0.00 0.00 0.00 62 1012.1
20260901010424 26 172 0.0 0.0 0.00 0.00 0.00 62 1012.2
20260901005923 26 172 0.0 0.0 0.00 0.00 0.00 61 1012.3
20260901005418 26 167 0.0 0.0 0.00 0.00 0.00 60 1012.3
20260901004919 26 171 0.0 0.0 0.00 0.00 0.00 59 1012.2
20260901004418 26 172 0.0 0.0 0.00 0.00 0.00 59 1012.3
20260901003913 27 175 0.0 0.0 0.00 0.00 0.00 59 1012.2
20260901003408 27 170 0.0 0.0 0.00 0.00 0.00 58 1012.2
20260901002906 27 168 0.0 0.0 0.00 0.00 0.00 57 1012.2
20260901002401 27 169 0.0 0.0 0.00 0.00 0.00 55 1012.2
20260901001900 28 169 0.0 0.0 0.00 0.00 0.00 55 1012.2
20260901001356 28 171 0.0 0.0 0.00 0.00 0.00 54 1012.1
20260901000852 28 173 0.0 0.0 0.00 0.00 0.00 53 1012.0